Location: downtown San Diego
(32.7310°N, 117.1990°W)
Time: 19:03:55
(UTC-07:00)

Cosmos 2263 Rocket - Pass Details

Date: 14 June 2018
Orbit: 825 x 847 km, 71.0° (Epoch: 17 August)

Event Time Altitude Azimuth Distance (km) Brightness Sun altitude
Rises 21:46:10 0° 204° (SSW) 3,392 5.1 -19.0°
Reaches altitude 10° 21:48:36 10° 206° (SSW) 2,460 4.4 -19.3°
Maximum altitude 21:54:15 73° 291° (WNW) 885 2.4 -20.1°
Drops below altitude 10° 21:59:55 10° 16° (NNE) 2,468 5.0 -20.9°
Sets 22:02:23 0° 19° (NNE) 3,403 5.8 -21.3°
